Location: Phoenix
(33.4480°N, 112.0730°W)
Time: 06:12:54
(UTC-07:00)

Daily predictions for brighter satellites

Satellite Brightness Start Highest point End
(mag) Time Altitude Azimuth Time Altitude Azimuth Time Altitude Azimuth
CORIOLIS 4.2 18:08:33 10° SSE 18:13:53 87° ENE 18:19:16 10° NNW
Cosmos 1328 3.9 18:12:34 10° S 18:16:30 80° W 18:20:26 10° N
Cosmos 2228 Rocket 3.9 18:12:51 10° NNW 18:17:11 58° W 18:21:33 10° S
MOS 1 4.5 18:11:58 10° SSE 18:17:36 81° WSW 18:23:17 10° NNW
Cosmos 44 4.3 18:14:14 10° SW 18:19:23 52° WNW 18:24:22 10° NNE
CZ-4 R/B 2.6 18:16:17 10° S 18:19:59 45° W 18:23:45 10° NNW
BREEZE-M DEB (TANK) 2.3 18:19:25 10° SSW 18:20:52 28° SE 18:22:33 10° ENE
ALOS 4.1 18:22:52 10° E 18:23:58 11° ENE 18:25:03 10° NE
Cosmos 1626 3.2 18:23:38 10° SSE 18:26:42 25° E 18:29:47 10° NE
Cosmos 2279 Rocket 4.2 18:20:58 10° N 18:27:01 51° E 18:33:02 10° SSE
MONITOR-E 4.1 18:24:40 10° SSE 18:27:48 74° ENE 18:30:58 10° N
IDEFIX/ARIANE 42P 3.7 18:23:11 10° S 18:28:11 48° W 18:33:15 10° NNW
Cosmos 2333 Rocket 3.4 18:24:30 10° SW 18:29:51 44° WNW 18:35:15 10° N
Cosmos 2219 Rocket 3.8 18:25:52 10° SW 18:30:54 33° WNW 18:35:57 10° N
Aureole 2 Rocket 2.9 18:27:54 10° SSW 18:31:30 73° WNW 18:35:26 10° NNE
SJ-6B 4.1 18:29:44 10° ESE 18:32:48 21° ENE 18:35:54 10° NNE
Intelsat 5-1 Rocket 3.6 18:32:12 10° SSW 18:33:48 15° S 18:35:51 10° SE
Cosmos 1703 3.5 18:32:00 10° SSE 18:35:43 46° E 18:39:28 10° NNE
Cosmos 1151 Rocket 3.2 18:32:54 10° N 18:37:11 76° W 18:41:28 10° S
Nadezhda 4 Rocket 4.3 18:36:34 10° SSE 18:42:22 43° E 18:48:15 10° NNE
Cosmos 1455 3.4 18:40:03 10° NNE 18:43:01 21° ENE 18:45:58 10° SE
Cosmos 1805 Rocket 3.6 18:39:01 10° S 18:43:23 62° E 18:47:48 10° NNE
Cosmos 2278 Rocket 2.2 18:40:28 10° NNW 18:46:11 87° WSW 18:51:50 10° SSE
Cosmos 1726 3.0 18:42:36 10° NNW 18:46:17 53° W 18:49:57 10° S
SKYMED 2 4.1 18:43:07 10° N 18:47:25 63° WNW 18:51:41 10° SSW
FREGAT/IRIS 3.6 18:47:13 10° SE 18:49:47 25° ENE 18:52:22 10° NNE
Cosmos 2180 Rocket 4.4 18:45:43 10° N 18:51:52 68° E 18:58:04 10° SSE
Cosmos 773 Rocket 4.3 18:50:09 10° S 18:55:01 45° ESE 18:59:32 12° NNE
Cosmos 372 Rocket 4.0 18:50:10 10° NNW 18:55:17 82° WSW 19:00:22 10° SSE
Cosmos 1340 Rocket 3.7 18:56:20 10° SSW 19:00:10 50° W 19:03:59 10° N
Sich 1 3.0 18:56:15 10° S 19:00:38 62° E 19:05:01 10° NNE
Cosmos 1092 Rocket 4.3 18:56:49 10° SSE 19:02:46 45° E 19:08:44 10° NNE
Cosmos 1484 Rocket 4.4 19:00:03 10° SSW 19:03:41 38° W 19:07:24 10° NNW
OAO 1 Rocket 4.4 18:58:34 10° WNW 19:03:54 90° NNE 19:07:14 23° ESE
Cosmos 1461 3.9 19:02:13 10° SW 19:06:17 44° WNW 19:10:07 11° NNE
Cosmos 2237 Rocket 4.1 19:01:32 10° WSW 19:06:19 28° WNW 19:11:07 10° N
Cosmos 1633 Rocket 3.0 19:03:50 10° S 19:08:12 66° E 19:12:34 10° NNE
FAST Rocket 4.1 19:06:11 10° SSW 19:08:56 68° W 19:10:56 16° N
USA 215 3.6 19:08:59 21° E 19:12:57 44° NE 19:19:03 10° NNW
SL-16 R/B 2.7 19:07:29 10° SSW 19:13:03 61° WNW 19:18:40 10° NNE
OTV 4 2.1 19:18:42 10° W 19:21:20 29° SSW 19:22:13 24° S
Coronas F rocket 3.3 19:24:17 10° SSW 19:25:10 19° SSW 19:25:10 19° SSW
Cosmos 1356 Rocket 4.3 19:23:02 10° SSW 19:26:53 47° W 19:30:44 10° N
Cosmos 2297 3.7 19:23:13 10° NNW 19:28:57 83° WSW 19:34:40 10° SSE
Milstar 3 4.0 19:26:20 10° W 19:32:17 35° SSW 19:38:30 12° SE
Cosmos 1707 Rocket 4.3 19:32:10 10° NNW 19:36:23 52° W 19:40:36 10° S
Cosmos 1900 4.3 19:32:33 10° NNW 19:37:33 87° WSW 19:41:18 18° SSE
Cosmos 1184 Rocket 4.3 19:35:20 10° SSW 19:38:27 36° W 19:40:05 22° NNW
Resurs 01 Rocket 2.4 19:35:22 10° SSE 19:41:22 38° N 19:44:11 10° N
Aureole 1 Rocket 4.0 19:36:28 10° SSW 19:41:24 69° WNW 19:48:02 10° NNE
Spot 2 Rocket 3.3 19:36:25 10° SSE 19:41:25 68° ENE 19:46:25 10° N
Tiangong 1 3.0 19:38:55 10° SW 19:40:17 24° SW 19:40:17 24° SW
Lacrosse 5 rocket 2.4 19:41:00 10° NW 19:44:40 41° SW 19:46:42 23° S
FENGYUN 3A 3.5 19:42:40 10° SSE 19:48:01 84° ENE 19:53:24 10° N
Cosmos 1655 Rocket 4.1 19:45:48 10° SSE 19:51:25 53° ESE 19:51:25 53° ESE
Cosmos 1943 4.3 19:47:27 10° S 19:50:28 29° SSE 19:50:28 29° SSE
Cosmos 1933 Rocket 3.8 19:49:42 10° S 19:53:28 64° SSW 19:53:28 64° SSW
USA 229 DEB 4.1 19:49:03 10° SW 19:55:47 61° WNW 19:59:43 27° NNE
USA 229 4.1 19:49:09 10° SW 19:55:53 61° WNW 19:59:46 27° NNE
Iridium 4 Rocket 3.9 19:52:24 10° SSW 19:56:56 51° W 19:59:35 21° NNW
Cosmos 1627 Rocket 4.3 19:54:12 10° S 20:00:25 87° E 20:03:13 35° N
ALOS 2.6 19:56:11 10° S 20:00:48 64° W 20:05:27 10° NNW
BREEZE-M DEB (TANK) 3.7 20:04:05 10° SW 20:08:13 77° SE 20:09:57 57° ENE
Cosmos 1680 Rocket 3.8 20:05:43 10° SSW 20:10:52 64° WNW 20:10:57 64° WNW
Cosmos 1603 4.5 20:12:15 10° SW 20:17:39 47° WNW 20:18:57 40° NNW
Cosmos 2026 Rocket 4.4 20:25:22 10° SSW 20:31:28 57° W 20:32:28 51° NW
H-2A ROCKET BODY 3.6 20:42:20 10° W 20:51:58 41° WSW 20:51:58 41° WSW
USA 215 4.1 20:56:22 45° WSW 20:56:22 45° WSW 21:02:05 10° NW
